Riverton, WY

5:59 AM MDT on April 21, 2018 (GMT -0600)
Riverton Regional

Weather History for KRIW - May, 2013

Change the Weather History Date:

Wednesday, May 29, 2013

  Actual Average Record
Temperature  
Mean Temperature 53 °F 58 °F  
Max Temperature 62 °F 71 °F 93 °F (2003)
Min Temperature 44 °F 44 °F 33 °F (2011)
Degree Days  
Heating Degree Days 12 8  
Month to date heating degree days 252 337  
Since 1 July heating degree days 7462 7733  
Cooling Degree Days 0 1  
Month to date cooling degree days 13 2  
Year to date cooling degree days 13 2  
Growing Degree Days 2 (Base 50)    
Moisture  
Dew Point 42 °F    
Average Humidity 67    
Maximum Humidity 92    
Minimum Humidity 42    
Precipitation  
Precipitation 0.09 in 0.05 in 1.30 in (2011)
Month to date precipitation 1.38 1.63  
Year to date precipitation 3.44 3.99  
Snow  
Snow 0.00 in - - ()
Month to date snowfall 2.4  
Since 1 July snowfall 38.2  
Snow Depth 0.00 in    
Sea Level Pressure  
Sea Level Pressure 29.62 in    
Wind  
Wind Speed 15 mph (NW)    
Max Wind Speed 32 mph    
Max Gust Speed 40 mph    
Visibility 10 miles    
Events Rain    
T = Trace of Precipitation, MM = Missing Value Source: NWS Daily Summary

Daily Weather History Graph

Daily Weather History Graph

Search for Another Location

Airport or City:

Astronomy

May. 29, 2013 Rise Set
Actual Time 5:38 AM MDT 8:44 PM MDT
Civil Twilight 5:04 AM MDT 9:18 PM MDT
Nautical Twilight 4:20 AM MDT 10:02 PM MDT
Astronomical Twilight 3:28 AM MDT 10:55 PM MDT
Moon 12:05 AM MDT (5/29) 10:46 AM MDT (5/29)
Length of Visible Light 16h 14m
Length of Day
15h 05m
Waning Gibbous, 72% of the Moon is Illuminated
May 29
Waning Gibbous
May 31
Last Quarter
Jun 8
New
Jun 16
First Quarter
Jun 23
Full

Hourly Weather History & Observations

Time (MDT) Temp. Windchill Dew Point Humidity Pressure Visibility Wind Dir Wind Speed Gust Speed Precip Events Conditions
12:53 AM 52.0 °F - 43.0 °F 71% 29.57 in 10.0 mi ESE 4.6 mph - N/A   Overcast
1:53 AM 50.0 °F - 44.1 °F 80% 29.55 in 10.0 mi NE 6.9 mph - N/A   Overcast
2:50 AM 48.2 °F - 42.8 °F 82% 29.70 in 10.0 mi NW 13.8 mph - 0.00 in   Overcast
2:53 AM 48.0 °F - 43.0 °F 83% 29.58 in 10.0 mi NW 18.4 mph 23.0 mph 0.00 in   Overcast
3:29 AM 46.4 °F 39.2 °F 42.8 °F 87% 29.69 in 10.0 mi NW 18.4 mph 27.6 mph 0.00 in   Mostly Cloudy
3:53 AM 46.0 °F 38.5 °F 42.1 °F 86% 29.60 in 10.0 mi NW 19.6 mph - 0.00 in   Mostly Cloudy
4:08 AM 46.4 °F 39.5 °F 42.8 °F 87% 29.70 in 10.0 mi NW 17.3 mph - N/A   Overcast
4:53 AM 46.9 °F - 42.1 °F 83% 29.59 in 10.0 mi NW 12.7 mph - N/A   Overcast
5:53 AM 46.0 °F 38.5 °F 41.0 °F 83% 29.59 in 10.0 mi WNW 19.6 mph - N/A   Overcast
6:31 AM 44.6 °F 37.8 °F 42.8 °F 93% 29.69 in 4.0 mi WNW 15.0 mph - 0.02 in Rain Rain
6:53 AM 45.0 °F 39.3 °F 42.1 °F 90% 29.59 in 10.0 mi WNW 11.5 mph - 0.04 in Rain Light Rain
7:31 AM 44.6 °F 38.1 °F 42.8 °F 93% 29.69 in 10.0 mi WNW 13.8 mph - 0.01 in Rain Light Rain
7:53 AM 45.0 °F 38.9 °F 43.0 °F 93% 29.60 in 10.0 mi WNW 12.7 mph - 0.01 in Rain Light Rain
8:53 AM 46.0 °F 38.8 °F 42.1 °F 86% 29.60 in 10.0 mi WNW 18.4 mph 26.5 mph 0.00 in   Overcast
9:01 AM 46.4 °F 40.1 °F 42.8 °F 87% 29.70 in 10.0 mi WNW 15.0 mph - N/A   Overcast
9:53 AM 48.0 °F - 39.9 °F 74% 29.61 in 10.0 mi WNW 19.6 mph 29.9 mph N/A   Mostly Cloudy
10:53 AM 48.0 °F - 43.0 °F 83% 29.61 in 6.0 mi WNW 21.9 mph 34.5 mph 0.00 in Rain Light Rain
11:53 AM 48.9 °F - 43.0 °F 80% 29.62 in 10.0 mi NW 23.0 mph 31.1 mph 0.02 in Rain Light Rain
12:53 PM 52.0 °F - 42.1 °F 69% 29.60 in 10.0 mi NW 23.0 mph 34.5 mph 0.00 in Rain Light Rain
1:53 PM 55.9 °F - 39.0 °F 53% 29.57 in 10.0 mi NW 26.5 mph 38.0 mph 0.00 in   Partly Cloudy
2:53 PM 60.1 °F - 37.9 °F 44% 29.55 in 10.0 mi NNW 25.3 mph 34.5 mph N/A   Scattered Clouds
3:53 PM 61.0 °F - 37.0 °F 41% 29.55 in 10.0 mi NNW 19.6 mph 29.9 mph N/A   Clear
4:53 PM 59.0 °F - 39.0 °F 48% 29.57 in 10.0 mi North 10.4 mph 19.6 mph N/A   Partly Cloudy
5:53 PM 55.9 °F - 39.9 °F 55% 29.58 in 10.0 mi South 10.4 mph - N/A   Overcast
6:53 PM 52.0 °F - 44.1 °F 74% 29.60 in 10.0 mi SSW 11.5 mph - 0.00 in   Overcast
7:53 PM 51.1 °F - 46.0 °F 83% 29.64 in 10.0 mi SSW 9.2 mph - 0.01 in Rain Light Rain
8:53 PM 51.1 °F - 45.0 °F 80% 29.63 in 10.0 mi SSW 6.9 mph - 0.01 in   Overcast
9:53 PM 50.0 °F - 43.0 °F 77% 29.64 in 10.0 mi WSW 9.2 mph - 0.00 in   Mostly Cloudy
10:53 PM 48.0 °F - 42.1 °F 80% 29.68 in 10.0 mi East 6.9 mph - N/A   Scattered Clouds
11:53 PM 46.9 °F - 42.1 °F 83% 29.68 in 10.0 mi NE 3.5 mph - N/A   Overcast